Time,TemperatureF,DewpointF,PressureIn,WindDirection,WindDirectionDegrees,WindSpeedMPH,WindSpeedGustMPH,Humidity,HourlyPrecipIn,Conditions,Clouds,dailyrainin,SoftwareType,DateUTC
2013-02-07 00:09:00,41.5,23.0,30.04,NE,44,3.0,3.0,49,0.00,,,0.00,weatherlink.com 1.10,2013-02-07 05:09:00,
2013-02-07 00:24:00,41.8,25.0,30.04,NE,35,4.0,5.0,52,0.00,,,0.00,weatherlink.com 1.10,2013-02-07 05:24:00,
2013-02-07 00:39:00,41.6,25.0,30.04,NE,42,4.0,5.0,53,0.00,,,0.00,weatherlink.com 1.10,2013-02-07 05:39:00,
2013-02-07 00:55:00,41.0,25.0,30.03,NE,39,1.0,4.0,53,0.00,,,0.00,weatherlink.com 1.10,2013-02-07 05:55:00,
2013-02-07 01:10:00,40.7,25.0,30.04,NNE,33,2.0,4.0,53,0.00,,,0.00,weatherlink.com 1.10,2013-02-07 06:10:00,
2013-02-07 01:25:00,40.8,26.0,30.04,NNE,33,2.0,3.0,55,0.00,,,0.00,weatherlink.com 1.10,2013-02-07 06:25:00,
2013-02-07 01:40:00,40.6,25.0,30.03,NE,40,3.0,3.0,55,0.00,,,0.00,weatherlink.com 1.10,2013-02-07 06:40:00,
2013-02-07 01:55:00,40.2,25.0,30.03,NE,39,3.0,4.0,55,0.00,,,0.00,weatherlink.com 1.10,2013-02-07 06:55:00,
2013-02-07 02:10:00,39.9,24.0,30.03,NE,37,3.0,4.0,54,0.00,,,0.00,weatherlink.com 1.10,2013-02-07 07:10:00,
2013-02-07 02:25:00,40.2,25.0,30.03,NE,40,2.0,3.0,56,0.00,,,0.00,weatherlink.com 1.10,2013-02-07 07:25:00,
2013-02-07 02:40:00,40.3,25.0,30.03,NE,40,2.0,3.0,55,0.00,,,0.00,weatherlink.com 1.10,2013-02-07 07:40:00,
2013-02-07 02:55:00,40.4,24.0,30.03,NE,40,3.0,4.0,53,0.00,,,0.00,weatherlink.com 1.10,2013-02-07 07:55:00,
2013-02-07 03:10:00,40.4,25.0,30.03,NE,40,2.0,4.0,55,0.00,,,0.00,weatherlink.com 1.10,2013-02-07 08:10:00,
2013-02-07 03:25:00,39.9,25.0,30.04,NE,40,1.0,4.0,55,0.00,,,0.00,weatherlink.com 1.10,2013-02-07 08:25:00,
2013-02-07 03:40:00,39.8,26.0,30.04,NE,45,2.0,4.0,57,0.00,,,0.00,weatherlink.com 1.10,2013-02-07 08:40:00,
2013-02-07 03:55:00,39.8,25.0,30.05,NE,45,2.0,3.0,55,0.00,,,0.00,weatherlink.com 1.10,2013-02-07 08:55:00,
2013-02-07 04:10:00,39.7,25.0,30.05,NE,45,0.0,3.0,56,0.00,,,0.00,weatherlink.com 1.10,2013-02-07 09:10:00,
2013-02-07 04:25:00,39.5,26.0,30.05,NE,45,2.0,3.0,58,0.00,,,0.00,weatherlink.com 1.10,2013-02-07 09:25:00,
2013-02-07 04:40:00,39.7,26.0,30.06,NE,45,1.0,3.0,58,0.00,,,0.00,weatherlink.com 1.10,2013-02-07 09:40:00,
2013-02-07 04:55:00,39.8,26.0,30.06,NE,45,0.0,3.0,59,0.00,,,0.00,weatherlink.com 1.10,2013-02-07 09:55:00,
2013-02-07 05:10:00,39.9,25.0,30.06,NE,45,2.0,3.0,56,0.00,,,0.00,weatherlink.com 1.10,2013-02-07 10:10:00,
2013-02-07 05:25:00,40.1,25.0,30.06,NE,45,0.0,4.0,56,0.00,,,0.00,weatherlink.com 1.10,2013-02-07 10:25:00,
2013-02-07 05:40:00,40.1,26.0,30.04,NE,45,0.0,2.0,58,0.00,,,0.00,weatherlink.com 1.10,2013-02-07 10:40:00,
2013-02-07 05:55:00,40.0,24.0,30.04,NE,45,0.0,1.0,54,0.00,,,0.00,weatherlink.com 1.10,2013-02-07 10:55:00,
2013-02-07 06:10:00,39.6,24.0,30.04,NE,45,0.0,2.0,55,0.00,,,0.00,weatherlink.com 1.10,2013-02-07 11:10:00,
2013-02-07 06:25:00,39.5,25.0,30.04,NE,41,0.0,3.0,56,0.00,,,0.00,weatherlink.com 1.10,2013-02-07 11:25:00,
2013-02-07 06:40:00,39.3,24.0,30.04,NE,41,0.0,1.0,55,0.00,,,0.00,weatherlink.com 1.10,2013-02-07 11:40:00,
2013-02-07 06:55:00,39.2,25.0,30.05,NE,41,1.0,2.0,58,0.00,,,0.00,weatherlink.com 1.10,2013-02-07 11:55:00,
2013-02-07 07:10:00,39.2,25.0,30.04,NE,41,1.0,2.0,58,0.00,,,0.00,weatherlink.com 1.10,2013-02-07 12:10:00,
2013-02-07 07:25:00,39.1,25.0,30.04,NE,41,0.0,2.0,57,0.00,,,0.00,weatherlink.com 1.10,2013-02-07 12:25:00,
2013-02-07 07:40:00,38.9,25.0,30.05,NE,41,0.0,1.0,59,0.00,,,0.00,weatherlink.com 1.10,2013-02-07 12:40:00,
2013-02-07 07:55:00,39.0,24.0,30.04,NE,41,0.0,2.0,56,0.00,,,0.00,weatherlink.com 1.10,2013-02-07 12:55:00,
2013-02-07 08:10:00,39.2,26.0,30.05,NE,41,0.0,2.0,59,0.00,,,0.00,weatherlink.com 1.10,2013-02-07 13:10:00,
2013-02-07 08:25:00,39.4,26.0,30.05,NE,41,0.0,0.0,58,0.00,,,0.00,weatherlink.com 1.10,2013-02-07 13:25:00,
2013-02-07 08:40:00,39.7,25.0,30.04,NE,41,0.0,0.0,55,0.00,,,0.00,weatherlink.com 1.10,2013-02-07 13:40:00,
2013-02-07 08:56:00,40.3,25.0,30.04,NE,41,0.0,0.0,54,0.00,,,0.00,weatherlink.com 1.10,2013-02-07 13:56:00,
2013-02-07 09:10:00,40.7,29.0,30.05,NE,41,0.0,1.0,63,0.00,,,0.00,weatherlink.com 1.10,2013-02-07 14:10:00,
2013-02-07 09:26:00,40.9,25.0,30.05,WSW,245,0.0,4.0,54,0.00,,,0.00,weatherlink.com 1.10,2013-02-07 14:26:00,
2013-02-07 09:40:00,41.0,25.0,30.04,West,264,0.0,3.0,54,0.00,,,0.00,weatherlink.com 1.10,2013-02-07 14:40:00,
2013-02-07 09:55:00,41.0,26.0,30.04,West,264,0.0,2.0,55,0.00,,,0.00,weatherlink.com 1.10,2013-02-07 14:55:00,
2013-02-07 10:10:00,41.1,26.0,30.03,West,264,0.0,3.0,56,0.00,,,0.00,weatherlink.com 1.10,2013-02-07 15:10:00,
2013-02-07 10:25:00,41.0,26.0,30.02,West,264,0.0,2.0,56,0.00,,,0.00,weatherlink.com 1.10,2013-02-07 15:25:00,
2013-02-07 10:40:00,41.0,26.0,30.03,West,264,0.0,1.0,56,0.00,,,0.00,weatherlink.com 1.10,2013-02-07 15:40:00,
2013-02-07 10:55:00,41.2,27.0,30.02,West,264,0.0,0.0,57,0.00,,,0.00,weatherlink.com 1.10,2013-02-07 15:55:00,
2013-02-07 11:11:00,41.6,27.0,30.01,West,264,0.0,1.0,57,0.00,,,0.00,weatherlink.com 1.10,2013-02-07 16:11:00,
2013-02-07 11:26:00,42.2,28.0,30.01,North,354,3.0,3.0,57,0.00,,,0.00,weatherlink.com 1.10,2013-02-07 16:26:00,
2013-02-07 11:40:00,43.1,29.0,30.00,West,270,0.0,3.0,58,0.00,,,0.00,weatherlink.com 1.10,2013-02-07 16:40:00,
2013-02-07 11:56:00,43.3,28.0,29.99,West,269,0.0,3.0,56,0.00,,,0.00,weatherlink.com 1.10,2013-02-07 16:56:00,
2013-02-07 12:11:00,43.4,31.0,29.98,WSW,257,0.0,2.0,63,0.00,,,0.00,weatherlink.com 1.10,2013-02-07 17:11:00,
2013-02-07 12:26:00,42.9,32.0,29.98,North,1,0.0,3.0,66,0.00,,,0.00,weatherlink.com 1.10,2013-02-07 17:26:00,
2013-02-07 12:41:00,42.0,33.0,29.98,North,353,0.0,2.0,70,0.00,,,0.00,weatherlink.com 1.10,2013-02-07 17:41:00,
2013-02-07 12:56:00,41.3,34.0,29.97,North,353,0.0,1.0,76,0.01,,,0.01,weatherlink.com 1.10,2013-02-07 17:56:00,
2013-02-07 13:11:00,40.8,32.0,29.96,North,353,0.0,0.0,71,0.01,,,0.01,weatherlink.com 1.10,2013-02-07 18:11:00,
2013-02-07 13:26:00,40.9,35.0,29.96,North,353,0.0,0.0,80,0.01,,,0.01,weatherlink.com 1.10,2013-02-07 18:26:00,
2013-02-07 13:41:00,40.7,35.0,29.96,North,353,0.0,2.0,81,0.01,,,0.01,weatherlink.com 1.10,2013-02-07 18:41:00,
2013-02-07 13:56:00,40.2,36.0,29.95,North,353,0.0,1.0,84,0.01,,,0.02,weatherlink.com 1.10,2013-02-07 18:56:00,
2013-02-07 14:11:00,39.8,36.0,29.95,North,353,0.0,1.0,87,0.02,,,0.03,weatherlink.com 1.10,2013-02-07 19:11:00,
2013-02-07 14:26:00,39.5,36.0,29.95,North,353,0.0,1.0,88,0.04,,,0.05,weatherlink.com 1.10,2013-02-07 19:26:00,
2013-02-07 14:41:00,39.1,37.0,29.94,North,353,0.0,1.0,90,0.06,,,0.07,weatherlink.com 1.10,2013-02-07 19:41:00,
2013-02-07 14:56:00,38.9,37.0,29.94,North,353,0.0,2.0,92,0.07,,,0.09,weatherlink.com 1.10,2013-02-07 19:56:00,
2013-02-07 15:11:00,38.7,37.0,29.94,WSW,245,0.0,2.0,93,0.09,,,0.12,weatherlink.com 1.10,2013-02-07 20:11:00,
2013-02-07 15:26:00,38.4,37.0,29.93,NW,304,1.0,4.0,94,0.10,,,0.15,weatherlink.com 1.10,2013-02-07 20:26:00,
2013-02-07 15:41:00,38.2,37.0,29.93,NNW,342,0.0,2.0,95,0.11,,,0.18,weatherlink.com 1.10,2013-02-07 20:41:00,
2013-02-07 15:56:00,38.0,37.0,29.93,South,177,1.0,2.0,96,0.12,,,0.21,weatherlink.com 1.10,2013-02-07 20:56:00,
2013-02-07 16:14:00,37.7,37.0,29.92,ESE,119,0.0,3.0,96,0.12,,,0.24,weatherlink.com 1.10,2013-02-07 21:14:00,
2013-02-07 16:26:00,37.2,36.0,29.92,NE,52,0.0,2.0,95,0.12,,,0.27,weatherlink.com 1.10,2013-02-07 21:26:00,
2013-02-07 16:42:00,37.3,36.0,29.91,NNE,21,1.0,3.0,96,0.11,,,0.29,weatherlink.com 1.10,2013-02-07 21:42:00,
2013-02-07 16:56:00,37.5,37.0,29.90,WNW,296,1.0,3.0,96,0.09,,,0.30,weatherlink.com 1.10,2013-02-07 21:56:00,
2013-02-07 17:12:00,37.7,37.0,29.90,NW,317,0.0,2.0,96,0.07,,,0.31,weatherlink.com 1.10,2013-02-07 22:12:00,
2013-02-07 17:27:00,37.8,37.0,29.90,NNW,335,0.0,2.0,96,0.04,,,0.31,weatherlink.com 1.10,2013-02-07 22:27:00,
2013-02-07 17:42:00,38.0,37.0,29.90,NW,321,1.0,3.0,96,0.03,,,0.32,weatherlink.com 1.10,2013-02-07 22:42:00,
2013-02-07 17:57:00,38.0,37.0,29.90,WNW,288,0.0,3.0,96,0.04,,,0.34,weatherlink.com 1.10,2013-02-07 22:57:00,
2013-02-07 18:12:00,38.1,37.0,29.89,SSW,200,2.0,5.0,96,0.05,,,0.36,weatherlink.com 1.10,2013-02-07 23:12:00,
2013-02-07 18:27:00,38.2,37.0,29.89,NW,309,0.0,3.0,96,0.08,,,0.39,weatherlink.com 1.10,2013-02-07 23:27:00,
2013-02-07 18:42:00,38.2,37.0,29.89,NNW,330,1.0,5.0,95,0.10,,,0.42,weatherlink.com 1.10,2013-02-07 23:42:00,
2013-02-07 18:57:00,38.1,37.0,29.89,NNE,18,0.0,2.0,95,0.09,,,0.43,weatherlink.com 1.10,2013-02-07 23:57:00,
2013-02-07 19:12:00,38.0,37.0,29.89,NNE,18,0.0,2.0,95,0.09,,,0.45,weatherlink.com 1.10,2013-02-08 00:12:00,
2013-02-07 19:27:00,37.9,36.0,29.89,NNE,12,0.0,3.0,94,0.07,,,0.46,weatherlink.com 1.10,2013-02-08 00:27:00,
2013-02-07 19:42:00,38.0,37.0,29.89,NNE,12,0.0,2.0,94,0.04,,,0.46,weatherlink.com 1.10,2013-02-08 00:42:00,
2013-02-07 19:57:00,38.2,37.0,29.89,NNE,13,0.0,3.0,95,0.04,,,0.47,weatherlink.com 1.10,2013-02-08 00:57:00,
2013-02-07 20:14:00,38.3,37.0,29.88,NNE,13,1.0,2.0,95,0.02,,,0.47,weatherlink.com 1.10,2013-02-08 01:14:00,
2013-02-07 20:27:00,38.5,37.0,29.88,NNW,340,1.0,3.0,95,0.02,,,0.48,weatherlink.com 1.10,2013-02-08 01:27:00,
2013-02-07 20:42:00,38.7,37.0,29.88,NNE,21,3.0,4.0,95,0.02,,,0.48,weatherlink.com 1.10,2013-02-08 01:42:00,
2013-02-07 20:57:00,38.8,38.0,29.88,NNE,25,0.0,5.0,95,0.01,,,0.48,weatherlink.com 1.10,2013-02-08 01:57:00,
2013-02-07 21:12:00,38.7,37.0,29.87,NNW,343,0.0,3.0,95,0.01,,,0.48,weatherlink.com 1.10,2013-02-08 02:12:00,
2013-02-07 21:27:00,38.7,37.0,29.87,NNW,345,1.0,5.0,95,0.00,,,0.48,weatherlink.com 1.10,2013-02-08 02:27:00,
2013-02-07 21:42:00,38.9,38.0,29.87,NW,326,1.0,5.0,95,0.00,,,0.48,weatherlink.com 1.10,2013-02-08 02:42:00,
2013-02-07 21:57:00,39.0,38.0,29.86,North,359,4.0,5.0,95,0.00,,,0.48,weatherlink.com 1.10,2013-02-08 02:57:00,
2013-02-07 22:12:00,39.1,38.0,29.86,ENE,65,0.0,3.0,94,0.00,,,0.48,weatherlink.com 1.10,2013-02-08 03:12:00,
2013-02-07 22:27:00,39.1,38.0,29.85,NNW,348,0.0,2.0,95,0.00,,,0.48,weatherlink.com 1.10,2013-02-08 03:27:00,
2013-02-07 22:42:00,39.0,38.0,29.85,NNW,348,1.0,2.0,95,0.00,,,0.48,weatherlink.com 1.10,2013-02-08 03:42:00,
2013-02-07 22:57:00,39.0,38.0,29.84,NNW,348,0.0,2.0,95,0.00,,,0.48,weatherlink.com 1.10,2013-02-08 03:57:00,
2013-02-07 23:12:00,39.0,38.0,29.84,NNW,348,0.0,1.0,95,0.00,,,0.48,weatherlink.com 1.10,2013-02-08 04:12:00,
2013-02-07 23:27:00,39.0,38.0,29.83,NNW,348,0.0,0.0,95,0.00,,,0.48,weatherlink.com 1.10,2013-02-08 04:27:00,
2013-02-07 23:42:00,39.0,38.0,29.82,NNW,348,0.0,0.0,95,0.00,,,0.48,weatherlink.com 1.10,2013-02-08 04:42:00,
2013-02-07 23:57:00,39.0,38.0,29.82,NNW,348,0.0,0.0,95,0.00,,,0.48,weatherlink.com 1.10,2013-02-08 04:57:00,